Weather History for Albert Lea, MN

Change the Weather History Date:

Sunday, February 10, 2013

  Actual Average Record
Temperature  
Mean Temperature 34 °F -  
Max Temperature 39 °F 26 °F 46 °F (1999)
Min Temperature 30 °F 11 °F -16 °F (2007)
Degree Days  
Heating Degree Days 30    
Moisture  
Dew Point 34 °F    
Average Humidity 99    
Maximum Humidity 100    
Minimum Humidity 93    
Precipitation  
Precipitation 0.31 in - - ()
Sea Level Pressure  
Sea Level Pressure 29.45 in    
Wind  
Wind Speed 14 mph (SSE)    
Max Wind Speed 21 mph    
Max Gust Speed 30 mph    
Visibility 3 miles    
Events Fog , Rain , Snow , Thunderstorm    
Averages and records for this station are not official NWS values.
T = Trace of Precipitation, MM = Missing Value Source: NWS Daily Summary

Daily Weather History Graph

Daily Weather History Graph

Search for Another Location

Airport:

Trip Planner

Search our weather history database for the weather conditions in past years. The results will help you decide how hot, cold, wet, or windy it might be!

Date:

Astronomy

Feb. 10, 2013 Rise Set
Actual Time 7:18 AM CST 5:37 PM CST
Civil Twilight 6:48 AM CST 6:07 PM CST
Nautical Twilight 6:15 AM CST 6:40 PM CST
Astronomical Twilight 5:41 AM CST 7:14 PM CST
Moon 7:06 AM CST (2/10) 6:32 PM CST (2/10)
Length of Visible Light 11h 18m
Length of Day
10h 18m
New Moon, 0% of the Moon is Illuminated
Feb 10
New Moon
Feb 17
First Quarter
Feb 25
Full
Mar 4
Last Quarter
Mar 11
New

Hourly Weather History & Observations

Time (CST) Temp. Windchill Dew Point Humidity Pressure Visibility Wind Dir Wind Speed Gust Speed Precip Events Conditions
12:09 AM 30.2 °F 17.4 °F 30.2 °F 100% 29.86 in 5.0 mi SSE 20.7 mph 24.2 mph N/A   Overcast
12:30 AM 30.2 °F 18.5 °F 30.2 °F 100% 29.86 in 5.0 mi SE 17.3 mph - N/A   Overcast
12:49 AM 30.2 °F 19.3 °F 30.2 °F 100% 29.85 in 5.0 mi SSE 15.0 mph 26.5 mph N/A   Overcast
1:10 AM 32.0 °F 20.8 °F 30.2 °F 93% 29.84 in 5.0 mi SSE 17.3 mph 21.9 mph N/A   Overcast
1:30 AM 32.0 °F 21.2 °F 30.2 °F 93% 29.82 in 5.0 mi SE 16.1 mph 19.6 mph N/A   Overcast
1:49 AM 30.2 °F 20.2 °F 30.2 °F 100% 29.83 in 2.5 mi SSE 12.7 mph - N/A Snow Light Snow
2:10 AM 30.2 °F 19.8 °F 30.2 °F 100% 29.81 in 4.0 mi SE 13.8 mph - 0.01 in Snow Light Snow
2:30 AM 32.0 °F 22.5 °F 30.2 °F 93% 29.79 in 4.0 mi SE 12.7 mph 17.3 mph 0.01 in Snow Light Snow
2:49 AM 30.2 °F 20.8 °F 30.2 °F 100% 29.78 in 4.0 mi SE 11.5 mph 17.3 mph N/A   Overcast
3:10 AM 30.2 °F 20.2 °F 30.2 °F 100% 29.77 in 4.0 mi SE 12.7 mph - N/A   Overcast
3:30 AM 32.0 °F 22.5 °F 30.2 °F 93% 29.75 in 4.0 mi ESE 12.7 mph - N/A   Overcast
3:49 AM 32.0 °F 22.1 °F 32.0 °F 100% 29.74 in 3.0 mi ESE 13.8 mph - N/A   Overcast
4:10 AM 32.0 °F 21.2 °F 32.0 °F 100% 29.72 in 3.0 mi ESE 16.1 mph 20.7 mph N/A   Overcast
4:30 AM 32.0 °F 22.1 °F 32.0 °F 100% 29.70 in 3.0 mi SE 13.8 mph - N/A   Overcast
4:49 AM 32.0 °F 20.5 °F 32.0 °F 100% 29.65 in 3.0 mi ESE 18.4 mph 23.0 mph N/A   Overcast
5:10 AM 32.0 °F 21.6 °F 32.0 °F 100% 29.67 in 3.0 mi SE 15.0 mph 20.7 mph N/A   Overcast
5:30 AM 32.0 °F 21.6 °F 32.0 °F 100% 29.64 in 3.0 mi ESE 15.0 mph 25.3 mph N/A   Overcast
5:49 AM 33.8 °F 23.5 °F 32.0 °F 93% 29.64 in 2.5 mi SE 16.1 mph 23.0 mph N/A   Overcast
6:10 AM 33.8 °F 23.2 °F 32.0 °F 93% 29.62 in 2.0 mi SE 17.3 mph 24.2 mph N/A   Overcast
6:30 AM 33.8 °F 22.8 °F 33.8 °F 100% 29.58 in 1.2 mi ESE 18.4 mph - N/A Thunderstorm Overcast
6:49 AM 33.8 °F 22.5 °F 33.8 °F 100% 29.56 in 0.8 mi ESE 19.6 mph 26.5 mph N/A   Overcast
7:10 AM 33.8 °F 22.5 °F 33.8 °F 100% 29.57 in 1.2 mi ESE 19.6 mph 29.9 mph N/A   Overcast
7:30 AM 33.8 °F 22.5 °F 33.8 °F 100% 29.54 in 1.0 mi ESE 19.6 mph 29.9 mph N/A   Overcast
7:49 AM 33.8 °F 23.5 °F 33.8 °F 100% 29.54 in 0.8 mi ESE 16.1 mph 25.3 mph N/A   Overcast
8:10 AM 33.8 °F 22.8 °F 33.8 °F 100% 29.53 in 1.0 mi SE 18.4 mph 26.5 mph N/A   Overcast
8:30 AM 33.8 °F 22.8 °F 33.8 °F 100% 29.52 in 1.2 mi SE 18.4 mph 21.9 mph 0.05 in   Overcast
8:49 AM 33.8 °F 23.5 °F 33.8 °F 100% 29.50 in 3.0 mi ESE 16.1 mph 23.0 mph N/A   Overcast
9:10 AM - - - N/A% 29.47 in 3.0 mi ESE 17.3 mph 21.9 mph N/A   Overcast
9:30 AM - - - N/A% 29.45 in 1.2 mi ESE 11.5 mph 20.7 mph 0.02 in   Overcast
9:49 AM 33.8 °F 23.9 °F 33.8 °F 100% 29.44 in 1.0 mi SE 15.0 mph 19.6 mph 0.02 in   Overcast
10:10 AM 35.6 °F 27.5 °F 35.6 °F 100% 29.44 in 1.2 mi SE 11.5 mph 17.3 mph 0.08 in   Overcast
10:30 AM 35.6 °F 27.1 °F 35.6 °F 100% 29.43 in 2.0 mi SE 12.7 mph 18.4 mph 0.10 in Snow Light Snow
10:49 AM 35.6 °F 27.5 °F 35.6 °F 100% 29.42 in 2.0 mi SE 11.5 mph - N/A Snow Light Snow
11:10 AM 35.6 °F 26.6 °F 35.6 °F 100% 29.41 in 1.8 mi SE 13.8 mph 17.3 mph 0.01 in Snow Light Snow
11:30 AM 35.6 °F 26.6 °F 35.6 °F 100% 29.39 in 2.5 mi SE 13.8 mph - 0.02 in Snow Light Snow
11:49 AM 35.6 °F 26.2 °F 35.6 °F 100% 29.37 in 5.0 mi SE 15.0 mph - N/A Snow Light Snow
12:10 PM 35.6 °F 25.5 °F 35.6 °F 100% 29.36 in 7.0 mi SE 17.3 mph 20.7 mph N/A   Overcast
12:30 PM 35.6 °F 26.6 °F 35.6 °F 100% 29.35 in 10.0 mi SE 13.8 mph - N/A   Overcast
12:49 PM 35.6 °F 27.1 °F 35.6 °F 100% 29.34 in 10.0 mi SE 12.7 mph - N/A   Overcast
1:10 PM 35.6 °F 27.1 °F 35.6 °F 100% 29.32 in 7.0 mi SE 12.7 mph - N/A   Overcast
1:29 PM 35.6 °F 28.0 °F 35.6 °F 100% 29.31 in 7.0 mi SE 10.4 mph - N/A   Overcast
1:50 PM 35.6 °F 27.1 °F 35.6 °F 100% 29.29 in 2.5 mi SE 12.7 mph 18.4 mph N/A   Overcast
2:09 PM 35.6 °F 27.1 °F 35.6 °F 100% 29.28 in 1.0 mi SE 12.7 mph - N/A   Overcast
2:30 PM 35.6 °F 27.5 °F 35.6 °F 100% 29.27 in 0.2 mi SE 11.5 mph - N/A Fog Fog
2:50 PM 37.4 °F 30.3 °F 37.4 °F 100% 29.26 in 0.2 mi SE 10.4 mph - N/A Fog Fog
3:09 PM 37.4 °F 31.4 °F 37.4 °F 100% 29.25 in 0.2 mi SE 8.1 mph - N/A   Drizzle
3:29 PM 37.4 °F 32.8 °F 37.4 °F 100% 29.25 in 0.2 mi SE 5.8 mph - N/A   Drizzle
3:50 PM 37.4 °F 32.1 °F 37.4 °F 100% 29.24 in 0.2 mi SE 6.9 mph - N/A Rain Light Rain
4:10 PM 37.4 °F 32.1 °F 37.4 °F 100% 29.23 in 0.2 mi SE 6.9 mph - N/A Rain Light Rain
4:29 PM 37.4 °F 31.4 °F 37.4 °F 100% 29.24 in 0.5 mi SSE 8.1 mph - 0.05 in Rain Heavy Rain
4:50 PM 37.4 °F 31.4 °F 37.4 °F 100% 29.24 in 2.5 mi South 8.1 mph 16.1 mph 0.01 in Rain Rain
5:10 PM 39.2 °F 32.5 °F 39.2 °F 100% 29.23 in 4.0 mi South 10.4 mph - 0.01 in Rain Rain
5:30 PM 39.2 °F 33.0 °F 39.2 °F 100% 29.23 in 7.0 mi SSW 9.2 mph - 0.01 in   Drizzle
5:49 PM 37.4 °F 30.8 °F 37.4 °F 100% 29.23 in 7.0 mi SSW 9.2 mph - N/A   Drizzle
6:10 PM 37.4 °F 29.8 °F 37.4 °F 100% 29.24 in 7.0 mi SW 11.5 mph 18.4 mph 0.01 in Rain Light Rain
6:30 PM 35.6 °F 28.6 °F 35.6 °F 100% 29.24 in 5.0 mi SW 9.2 mph - 0.02 in Rain Light Rain
6:49 PM 35.6 °F 29.9 °F 35.6 °F 100% 29.24 in 7.0 mi SSW 6.9 mph - N/A Rain Light Rain
7:10 PM 35.6 °F 30.7 °F 35.6 °F 100% 29.24 in 7.0 mi SSW 5.8 mph - N/A   Light Drizzle
7:30 PM 35.6 °F 30.7 °F 35.6 °F 100% 29.24 in 5.0 mi SSW 5.8 mph - N/A Snow Light Snow
7:49 PM 35.6 °F 29.9 °F 35.6 °F 100% 29.23 in 2.5 mi SSW 6.9 mph - N/A Snow Light Snow
8:10 PM 35.6 °F 29.2 °F 35.6 °F 100% 29.23 in 2.5 mi SSW 8.1 mph - 0.01 in   Overcast
8:30 PM 35.6 °F 29.2 °F 35.6 °F 100% 29.23 in 3.0 mi SSW 8.1 mph - 0.01 in   Overcast
8:49 PM 35.6 °F 29.2 °F 35.6 °F 100% 29.23 in 3.0 mi SW 8.1 mph - N/A Snow Light Snow
9:10 PM 35.6 °F 30.7 °F 35.6 °F 100% 29.24 in 2.5 mi SW 5.8 mph - N/A Snow Light Snow
9:29 PM 35.6 °F 29.9 °F 35.6 °F 100% 29.25 in 2.5 mi WSW 6.9 mph - 0.01 in Snow Light Snow
9:49 PM 35.6 °F 28.6 °F 35.6 °F 100% 29.25 in 3.0 mi West 9.2 mph - N/A Snow Light Snow
10:10 PM 35.6 °F 27.5 °F 35.6 °F 100% 29.26 in 4.0 mi West 11.5 mph - N/A Snow Light Snow
10:29 PM 35.6 °F 26.6 °F 35.6 °F 100% 29.27 in 0.5 mi West 13.8 mph 18.4 mph N/A Fog Fog
10:50 PM 33.8 °F 23.2 °F 33.8 °F 100% 29.29 in 1.0 mi WNW 17.3 mph 25.3 mph N/A   Overcast
11:10 PM 33.8 °F 24.3 °F 33.8 °F 100% 29.30 in 2.0 mi West 13.8 mph 26.5 mph N/A Snow Light Snow
11:29 PM 33.8 °F 23.5 °F 33.8 °F 100% 29.31 in - WNW 16.1 mph 25.3 mph 0.01 in   Overcast
11:50 PM 32.0 °F 22.1 °F 32.0 °F 100% 29.33 in - WNW 13.8 mph 26.5 mph N/A   Overcast